"Pseudo-MPEC" for P113qgU

Created 2020 Aug 6 7:07:14 UT using Find_Orb

Click here for an explanation of pseudo-MPECs

 
 Astrometry: 
     P113qgU  C2020 07 31U53Astrometryyc\-ySQHrJ9LHkF!T_c,8-.0\=yoXS@?,NKUFuHF51
     P113qgU  C2020 07 31rCmryHWb.IbWLredacted;RtGk(YDR*P#9Pya#v/uuW-click^eVF51
     P113qgU  C2020 07 31[h'3b-4-iGQE6P#OVk]-Y(W@@vvA2dE'c44R5@Q5V'm_b#PE0*X9F51
     P113qgU  C2020 08 01;xY8OTJm0INs7=%M]Wbm8/R3]wg26)1Ju:XEaChereH6:SBgjy)]F51
     P113qgU  C2020 08 0179ilLFWnXHwCLL]*KEMs5D3BfT2?^I0Q8V1?hg[6$jG;;N4PLrlVF51
     P113qgU  C2020 08 01^1n-vyyR0r/S9jCforWH`Gdab%iQ/-[.c?t2p1Zv,eOFUr#X2KBsF51
     P113qgU  C2020 08 01gceYKGgi@;U!ef[BbA-explanationkgcdkuvpqJ]M3V9l[:3$ZOF51

Station data:
(F51) Pan-STARRS 1, Haleakala  (N20.707235 W156.255910)  US/Hawaii.
   Observers N. Primak, A. Schultz, S. Watters, J. Thiel, T. Goggia. Measurer
   PS1 Science Consortium. 1.8-m Ritchey-Chrétien + CCD.

Orbital elements:  P113qgU
   Perihelion 2020 Sep 19.011032 +/- 82.3 TT =  0:15:53 (JD 2459111.511032)
Epoch 2020 Aug  1.0 TT = JDT 2459062.5   Earth MOID: 0.5064   Ma: 0.0409
M 346.97346124 +/- 80               (J2000 ecliptic)          AutoNEOCP
n   0.26578789 +/- 0.446            Peri.  326.10098 +/- 120
a   2.39577441 +/- 2.68             Node    73.30450 +/- 23
e   0.3775581 +/- 0.26              Incl.    7.38953 +/- 6
P   3.71                   H 18.4   G  0.15   U 12.2  SR
q 1.49123016 +/- 0.493    Q 3.30031866 +/- 12.9
From 7 observations 2020 July 31-Aug. 1 (24.2 hr); mean residual 0".05
Residuals in arcseconds: 
200731 F51  .04-  .01+    200801 F51  .02-  .05+    200801 F51  .01-  .07+    
200731 F51  .00   .00     200801 F51  .09-  .03-    
200731 F51  .04+  .01-    200801 F51  .12+  .08-    

Ephemerides (geocentric):
Date (UTC) HH   RA              Dec         delta   r     elong  mag " sig PA
---- -- -- --  -------------   -----------  ------ ------ -----  --- ---- ---
2020 08 06 07  03 31 20.552   +11 21 05.45  1.3303 1.5379  80.8 21.6  464 165
2020 08 06 08  03 31 27.335   +11 21 31.78  1.3299 1.5378  80.8 21.6  472 165
2020 08 06 09  03 31 34.118   +11 21 58.09  1.3296 1.5377  80.8 21.6  480 165
2020 08 06 10  03 31 40.902   +11 22 24.39  1.3293 1.5376  80.8 21.6  488 165
2020 08 06 11  03 31 47.685   +11 22 50.68  1.3289 1.5375  80.8 21.6  497 165
2020 08 06 12  03 31 54.469   +11 23 16.96  1.3286 1.5374  80.8 21.6  505 165
2020 08 06 13  03 32 01.253   +11 23 43.23  1.3283 1.5373  80.8 21.6  513 165
2020 08 06 14  03 32 08.037   +11 24 09.49  1.3280 1.5373  80.8 21.6  521 165
2020 08 06 15  03 32 14.821   +11 24 35.73  1.3276 1.5372  80.8 21.6  530 165
2020 08 06 16  03 32 21.605   +11 25 01.97  1.3273 1.5371  80.9 21.6  538 165
2020 08 06 17  03 32 28.389   +11 25 28.19  1.3270 1.5370  80.9 21.6  547 165
2020 08 06 18  03 32 35.173   +11 25 54.40  1.3267 1.5369  80.9 21.5  555 165
2020 08 06 19  03 32 41.958   +11 26 20.61  1.3263 1.5368  80.9 21.5  564 165
2020 08 06 20  03 32 48.742   +11 26 46.80  1.3260 1.5367  80.9 21.5  573 165
2020 08 06 21  03 32 55.527   +11 27 12.98  1.3257 1.5367  80.9 21.5  582 165
2020 08 06 22  03 33 02.312   +11 27 39.15  1.3254 1.5366  80.9 21.5  591 165
2020 08 06 23  03 33 09.096   +11 28 05.31  1.3250 1.5365  80.9 21.5  600 165
2020 08 07 00  03 33 15.881   +11 28 31.45  1.3247 1.5364  80.9 21.5  609 165
2020 08 07 01  03 33 22.667   +11 28 57.59  1.3244 1.5363  81.0 21.5  618 165
2020 08 07 02  03 33 29.452   +11 29 23.71  1.3241 1.5362  81.0 21.5  627 165
2020 08 07 03  03 33 36.237   +11 29 49.83  1.3237 1.5362  81.0 21.5  637 165
2020 08 07 04  03 33 43.022   +11 30 15.93  1.3234 1.5361  81.0 21.5  646 165
2020 08 07 05  03 33 49.808   +11 30 42.02  1.3231 1.5360  81.0 21.5  655 165
2020 08 07 06  03 33 56.594   +11 31 08.10  1.3228 1.5359  81.0 21.5  665 165
2020 08 07 07  03 34 03.379   +11 31 34.17  1.3224 1.5358  81.0 21.5  675 165
2020 08 07 08  03 34 10.165   +11 32 00.23  1.3221 1.5357  81.0 21.5  684 165
2020 08 07 09  03 34 16.951   +11 32 26.27  1.3218 1.5356  81.0 21.5  694 165
2020 08 07 10  03 34 23.737   +11 32 52.31  1.3215 1.5356  81.1 21.5  704 165
2020 08 07 11  03 34 30.523   +11 33 18.33  1.3211 1.5355  81.1 21.5  714 165
2020 08 07 12  03 34 37.309   +11 33 44.35  1.3208 1.5354  81.1 21.5  724 165
2020 08 07 13  03 34 44.096   +11 34 10.35  1.3205 1.5353  81.1 21.5  734 165
2020 08 07 14  03 34 50.882   +11 34 36.34  1.3202 1.5352  81.1 21.5  744 165
2020 08 07 15  03 34 57.669   +11 35 02.32  1.3199 1.5351  81.1 21.5  754 165
2020 08 07 16  03 35 04.455   +11 35 28.29  1.3195 1.5351  81.1 21.5  764 165
2020 08 07 17  03 35 11.242   +11 35 54.25  1.3192 1.5350  81.1 21.5  775 165
2020 08 07 18  03 35 18.029   +11 36 20.19  1.3189 1.5349  81.1 21.5  785 165
2020 08 07 19  03 35 24.815   +11 36 46.13  1.3186 1.5348  81.2 21.5  796 165
2020 08 07 20  03 35 31.602   +11 37 12.05  1.3182 1.5347  81.2 21.5  806 165
2020 08 07 21  03 35 38.389   +11 37 37.97  1.3179 1.5346  81.2 21.5  817 165
2020 08 07 22  03 35 45.176   +11 38 03.87  1.3176 1.5346  81.2 21.5  828 165
2020 08 07 23  03 35 51.964   +11 38 29.76  1.3173 1.5345  81.2 21.5  839 165
2020 08 08 00  03 35 58.751   +11 38 55.64  1.3169 1.5344  81.2 21.5  850 165
2020 08 08 01  03 36 05.538   +11 39 21.51  1.3166 1.5343  81.2 21.5  861 165
2020 08 08 02  03 36 12.326   +11 39 47.36  1.3163 1.5342  81.2 21.5  872 165
2020 08 08 03  03 36 19.113   +11 40 13.21  1.3160 1.5341  81.2 21.5  883 165
2020 08 08 04  03 36 25.901   +11 40 39.04  1.3156 1.5341  81.3 21.5  894 165
2020 08 08 05  03 36 32.688   +11 41 04.87  1.3153 1.5340  81.3 21.5  906 165
2020 08 08 06  03 36 39.476   +11 41 30.68  1.3150 1.5339  81.3 21.5  917 165